Temp
-6 -6 -5 -6 -6 -6 -5 -5 -5 -5 -5 -6 -6 -4 -2 -2 -2 -1 -1 -1 -2 -2 -2 -2 -1 -1 -1 -1 -1 -2 -2 -2 -2 -2 -3 -3 -4 -4 -4 -4 -5 -5 -4 -4 -4 -4 -4
-5 -6 -6 -6 -6 -6 -6 -5 -5 -5 -6 -6 -7 -5 -4 -3 -2 -2 -1 -2 -2 -2 -2 -2 -1 -1 -1 -1 -1 -2 -2 -2 -2 -3 -3 -3 -4 -3 -4 -4 -5 -4 -4 -3 -3 -3 -3
-6 -5 -7 -7 -7 -7 -6 -6 -6 -6 -6 -6 -6 -6 -5 -4 -3 -2 -2 -3 -2 -2 -2 -2 -2 -2 -2 -2 -1 -3 -2 -3 -3 -3 -4 -3 -3 -4 -4 -4 -4 -4 -4 -4 -3 -3 -3
-5 -7 -7 -7 -7 -7 -7 -7 -6 -6 -6 -6 -6 -6 -5 -4 -4 -3 -3 -3 -3 -3 -3 -2 -3 -2 -2 -2 -2 -3 -3 -3 -3 -4 -3 -3 -4 -4 -4 -4 -4 -5 -5 -4 -2 -4 -3
-7 -7 -7 -8 -7 -7 -7 -7 -7 -6 -7 -7 -6 -7 -6 -5 -5 -3 -3 -3 -3 -3 -3 -3 -2 -2 -2 -2 -3 -3 -3 -4 -3 -4 -3 -4 -3 -3 -4 -5 -6 -6 -6 -6 -5 -4 -5
-7 -7 -7 -7 -7 -7 -8 -7 -7 -7 -7 -6 -6 -6 -5 -4 -5 -4 -4 -3 -4 -3 -3 -3 -2 -2 -2 -3 -3 -4 -4 -5 -5 -4 -4 -5 -4 -4 -5 -7 -7 -7 -7 -7 -6 -3 -4
-7 -7 -7 -7 -7 -7 -7 -7 -7 -7 -6 -6 -6 -6 -5 -4 -4 -4 -4 -4 -3 -4 -3 -2 -2 -2 -3 -3 -3 -4 -5 -5 -5 -5 -6 -6 -5 -4 -6 -7 -7 -7 -7 -7 -5 -4 -5
-7 -7 -7 -6 -7 -7 -7 -6 -6 -6 -6 -6 -6 -6 -6 -5 -4 -5 -5 -4 -3 -3 -3 -3 -2 -3 -3 -4 -4 -5 -5 -4 -5 -6 -6 -6 -5 -6 -7 -7 -7 -7 -7 -6 -5 -4 -5
-6 -7 -6 -6 -7 -6 -6 -6 -6 -6 -6 -6 -6 -5 -5 -5 -5 -6 -5 -4 -4 -3 -3 -4 -3 -4 -4 -4 -5 -5 -4 -5 -5 -5 -6 -7 -6 -6 -6 -6 -6 -6 -6 -5 -5 -4 -4
-5 -6 -5 -6 -6 -6 -6 -6 -6 -6 -6 -6 -6 -5 -6 -5 -5 -5 -4 -4 -4 -3 -3 -4 -4 -4 -4 -4 -4 -5 -4 -4 -4 -5 -6 -5 -5 -6 -6 -6 -6 -6 -4 -5 -5 -6 -5
-5 -5 -5 -5 -5 -5 -5 -5 -5 -6 -6 -6 -5 -5 -5 -4 -4 -5 -4 -4 -3 -3 -6 -4 -4 -4 -4 -4 -4 -4 -4 -5 -6 -5 -5 -5 -5 -6 -5 -5 -5 -4 -5 -4 -4 -4 -5
-3 -3 -4 -4 -4 -4 -5 -5 -6 -6 -5 -6 -5 -5 -5 -4 -5 -5 -4 -4 -3 -3 -7 -4 -4 -4 -4 -4 -4 -4 -4 -4 -4 -5 -4 -5 -5 -4 -4 -4 -4 -4 -4 -4 -4 -4 -4
-3 -2 -3 -4 -4 -4 -5 -5 -5 -5 -5 -5 -4 -5 -5 -4 -4 -4 -3 -3 -3 -4 -4 -4 -3 -3 -3 -4 -3 -3 -4 -4 -4 -4 -3 -4 -3 -3 -3 -3 -3 -4 -4 -3 -4 -4 -2
-2 -3 -3 -4 -4 -4 -4 -4 -4 -4 -4 -4 -4 -4 -5 -4 -4 -4 -3 -3 -4 -5 -5 -3 -3 -3 -2 -3 -3 -3 -3 -3 -4 -3 -3 -3 -2 -3 -3 -3 -3 -3 -3 -3 -2 -2 -2
-2 -3 -2 -3 -3 -3 -3 -4 -4 -4 -4 -4 -4 -4 -4 -3 -3 -3 -3 -2 -4 -4 -3 -3 -3 -2 -2 -2 -2 -3 -3 -3 -3 -3 -2 -3 -2 -2 -3 -3 -3 -2 -2 -3 -3 -1 -2
1 -1 -1 -2 -2 -1 -2 -3 -3 -3 -3 -3 -3 -3 -3 -3 -2 -2 -2 -4 -4 -3 -3 -3 -2 -2 -2 -2 -2 -2 -2 -2 -2 -2 -3 -3 -2 -1 -2 -1 -2 -2 -2 -2 -2 -2 -1
1 1 1 1 0 -1 -1 -1 -2 -2 -2 -3 -3 -3 -2 -2 -3 -2 -2 -3 -3 -3 -2 -3 -2 -2 -2 -2 -2 -2 -2 -2 -2 -2 -3 -3 -2 -1 -1 -1 -1 -2 -1 -1 -1 -1 -2
1 1 1 1 1 -0 -1 -2 -2 -2 -3 -3 -2 -1 -2 -2 -2 -1 -2 -1 -2 -2 -2 -2 -2 -2 -2 -2 -2 -2 -2 -2 -2 -2 -2 -2 -2 -1 -1 -1 -1 -1 -1 0 -0 -0 -0
1 0 0 -0 -1 -0 -1 -2 -2 -3 -2 -2 -2 -2 -1 -2 -2 -2 -2 -2 -2 -2 -1 -1 -2 -2 -2 -2 -2 -2 -2 -2 -1 -1 -1 -1 -1 -1 -1 0 0 -0 1 1 1 -0 -2
0 1 -1 -1 -1 -2 -1 -1 -2 -2 -2 -2 -2 -2 -1 -1 -1 -1 -1 -2 -2 -2 -2 -2 -2 -2 -2 -2 -2 -2 -2 -2 -1 -1 -1 -1 -1 -1 -3 -2 -2 -1 0 2 2 -1 -2
2 0 -0 -0 -1 -1 -2 -2 -2 -2 -2 -2 -2 -2 -1 -1 -1 -0 -1 -1 -1 -1 -2 -2 -2 -1 -1 -1 -1 -1 -1 -1 -1 -1 -1 -1 -1 -1 -2 -2 -2 -1 -1 -0 -1 -0 -1
1 2 1 -1 -1 -1 -1 -2 -3 -3 -2 -3 -4 -2 -2 -1 -1 -0 -0 -0 -1 -1 -1 -1 -1 -1 -1 -0 -1 -1 -1 -1 -1 -1 -1 -1 -1 -1 -1 -1 -2 -1 -1 -0 0 -1 -2
2 1 2 2 0 -1 -0 0 -1 -2 -1 -0 -2 -3 -2 -1 -1 -1 -0 -0 -0 -0 -0 -0 -0 -0 -1 -0 -0 -0 -0 -1 -1 -1 -0 -1 -1 -1 -1 -1 -1 -1 -0 -0 -0 0 -0
1 1 1 1 1 1 1 1 1 0 -1 -1 -1 -1 -2 -2 -1 -1 -1 -0 0 -0 -0 -0 -0 -0 -0 -0 -0 -1 -0 -0 -0 -0 -0 -1 -1 -1 -1 -0 -4 -0 -0 -0 -1 -0 -0
2 1 1 -0 1 1 1 1 1 0 0 -1 -2 -1 -2 -1 -1 -1 -1 -1 -0 -0 -0 -0 -0 -1 -1 -1 -1 0 -0 0 -0 -0 -0 -0 -1 -1 -1 -1 -1 -0 -0 -0 -0 -0 0
3 3 2 1 1 2 3 2 1 0 0 1 -1 -2 -1 -1 -1 -1 -1 -1 -1 -1 -0 0 -0 -0 -1 -1 -1 -1 -1 -1 -1 -0 0 0 -0 -0 -1 -1 -2 1 1 -0 -0 -0 1
3 3 2 1 1 1 2 1 0 -0 -1 -0 0 -0 -1 -1 -1 -1 -1 -2 -1 -1 -1 -1 -1 -1 -1 -1 -1 -2 -2 -1 -1 -1 -0 -0 -0 -1 -1 -2 -0 1 0 -0 -1 1 1
2 3 3 1 1 1 0 1 -0 0 -0 -1 0 0 0 -0 -1 -0 -1 -2 -2 -2 -1 -1 -1 -1 -1 -2 -2 -2 -2 -1 -1 -0 -0 -0 -1 -1 -2 -2 -2 1 1 0 1 1 -0
1 2 3 1 0 1 -1 -0 1 1 1 -0 -0 0 0 1 1 -0 -1 -2 -3 -3 -3 -2 -1 -2 -2 -2 -2 -2 -2 -2 -1 -1 -0 -1 0 -0 0 1 1 1 1 0 1 0 -0
Height
3045 3039 3035 3030 3025 3023 3021 3020 3020 3018 3018 3019 3017 3018 3020 3023 3027 3032 3035 3040 3047 3051 3054 3057 3058 3058 3057 3057 3058 3059 3059 3059 3059 3059 3059 3058 3061 3061 3062 3063 3064 3065 3066 3065 3065 3066 3067
3039 3031 3026 3017 3015 3014 3012 3012 3012 3012 3012 3012 3014 3013 3014 3018 3022 3027 3031 3037 3044 3047 3050 3053 3054 3055 3055 3055 3056 3056 3058 3057 3057 3057 3057 3056 3057 3058 3060 3061 3061 3061 3060 3059 3059 3060 3060
3032 3022 3015 3012 3008 3006 3005 3003 3005 3005 3005 3007 3009 3009 3011 3014 3018 3024 3029 3033 3039 3042 3046 3049 3050 3051 3051 3053 3053 3054 3055 3055 3055 3055 3055 3055 3056 3058 3057 3058 3057 3057 3056 3055 3054 3055 3053
3024 3016 3009 3005 3002 2999 2997 2997 2995 2997 3000 3002 3005 3007 3008 3012 3016 3019 3025 3030 3035 3039 3044 3046 3047 3048 3050 3050 3051 3053 3054 3054 3053 3052 3054 3054 3053 3054 3055 3056 3055 3054 3053 3049 3048 3049 3048
3015 3009 3004 2999 2995 2992 2991 2991 2991 2993 2997 3000 3002 3004 3006 3009 3016 3018 3023 3028 3033 3037 3041 3044 3046 3047 3049 3049 3051 3051 3052 3051 3050 3051 3051 3051 3052 3053 3053 3053 3052 3051 3050 3048 3044 3044 3044
3010 3004 2998 2993 2989 2987 2986 2988 2989 2992 2996 2998 3001 3002 3005 3007 3013 3016 3021 3027 3032 3036 3040 3042 3044 3049 3048 3049 3050 3051 3050 3048 3049 3050 3050 3050 3048 3048 3049 3050 3049 3050 3050 3046 3043 3039 3038
3006 3000 2996 2991 2988 2985 2983 2985 2990 2993 2995 2997 2999 3001 3003 3006 3011 3017 3021 3027 3034 3038 3039 3041 3044 3045 3047 3049 3049 3049 3048 3049 3050 3048 3046 3045 3045 3045 3048 3048 3047 3047 3045 3042 3036 3034 3032
3003 2999 2995 2991 2987 2984 2983 2985 2988 2991 2993 2995 3000 3002 3005 3006 3011 3016 3022 3027 3031 3035 3039 3042 3042 3046 3047 3047 3048 3047 3049 3050 3047 3046 3045 3045 3042 3044 3044 3045 3045 3043 3041 3035 3029 3029 3029
3005 3000 2995 2992 2988 2987 2985 2986 2987 2990 2993 2997 2999 3002 3007 3010 3013 3018 3023 3027 3032 3036 3040 3044 3045 3046 3048 3048 3047 3049 3049 3047 3046 3044 3043 3042 3042 3040 3041 3042 3041 3039 3035 3031 3029 3025 3024
3007 3004 2999 2997 2992 2990 2988 2989 2991 2992 2996 2998 2999 3004 3008 3013 3018 3021 3026 3029 3033 3038 3042 3048 3047 3048 3048 3047 3049 3048 3047 3047 3044 3044 3042 3042 3040 3037 3037 3037 3038 3035 3033 3030 3027 3027 3025
3008 3005 3004 3002 2998 2994 2993 2994 2996 2998 3000 3000 3002 3007 3012 3016 3019 3023 3027 3029 3034 3039 3044 3050 3049 3049 3048 3050 3050 3049 3048 3044 3044 3044 3045 3043 3040 3037 3036 3036 3036 3033 3032 3029 3025 3024 3025
3012 3008 3008 3005 3005 3002 3001 3001 3002 3003 3003 3004 3008 3011 3017 3020 3022 3025 3028 3032 3037 3042 3047 3049 3049 3050 3051 3050 3050 3049 3047 3045 3044 3044 3043 3040 3039 3039 3037 3035 3034 3031 3029 3027 3024 3024 3024
3014 3014 3008 3010 3007 3008 3007 3007 3008 3009 3010 3012 3015 3018 3022 3024 3026 3028 3031 3036 3040 3041 3050 3052 3051 3050 3050 3051 3050 3049 3048 3046 3046 3046 3043 3040 3037 3038 3037 3033 3031 3028 3027 3024 3023 3024 3014
3019 3019 3016 3014 3013 3012 3012 3013 3014 3015 3017 3020 3022 3023 3027 3028 3030 3032 3035 3039 3040 3048 3049 3050 3051 3052 3051 3051 3051 3050 3050 3049 3049 3048 3044 3041 3039 3039 3036 3032 3029 3026 3025 3022 3017 3018 3019
3024 3023 3021 3020 3020 3018 3017 3019 3022 3024 3026 3028 3029 3030 3030 3031 3033 3036 3038 3038 3045 3048 3051 3053 3053 3052 3052 3052 3052 3053 3052 3051 3049 3048 3048 3044 3043 3041 3038 3032 3030 3027 3025 3024 3020 3021 3022
3033 3028 3027 3026 3023 3024 3024 3025 3027 3029 3032 3034 3036 3035 3034 3036 3039 3040 3041 3041 3047 3051 3053 3054 3053 3053 3052 3052 3053 3054 3053 3051 3049 3048 3046 3047 3044 3041 3040 3035 3033 3032 3030 3024 3023 3025 3025
3045 3039 3034 3034 3033 3028 3031 3031 3032 3033 3036 3039 3040 3041 3041 3041 3042 3043 3043 3046 3051 3054 3055 3055 3054 3054 3054 3053 3054 3054 3054 3052 3050 3048 3048 3047 3047 3045 3042 3038 3034 3031 3028 3025 3027 3028 3026
3055 3051 3048 3043 3043 3041 3036 3037 3039 3039 3041 3042 3044 3043 3044 3044 3046 3045 3048 3051 3054 3056 3055 3055 3056 3055 3055 3054 3055 3055 3054 3052 3051 3049 3050 3048 3047 3045 3045 3042 3038 3034 3031 3029 3028 3033 3031
3063 3059 3055 3054 3050 3049 3048 3044 3043 3044 3045 3046 3047 3046 3048 3049 3049 3049 3052 3055 3057 3057 3057 3057 3058 3058 3056 3056 3057 3056 3055 3054 3053 3051 3049 3049 3049 3047 3044 3045 3041 3036 3034 3032 3031 3031 3033
3071 3065 3062 3059 3056 3055 3054 3053 3050 3047 3047 3048 3048 3050 3052 3053 3052 3052 3054 3056 3058 3059 3059 3060 3059 3058 3058 3058 3058 3058 3057 3055 3054 3052 3051 3051 3049 3049 3050 3050 3047 3042 3038 3034 3031 3031 3037
3075 3070 3066 3063 3060 3058 3057 3057 3056 3054 3051 3050 3049 3051 3052 3054 3055 3056 3057 3058 3059 3060 3061 3061 3061 3060 3058 3058 3058 3057 3056 3055 3055 3053 3053 3052 3052 3051 3051 3050 3048 3046 3043 3040 3037 3038 3039
3078 3075 3071 3067 3066 3063 3062 3059 3057 3056 3054 3052 3050 3052 3053 3053 3055 3057 3058 3059 3060 3061 3062 3061 3061 3060 3059 3057 3057 3057 3056 3055 3055 3055 3054 3053 3054 3053 3053 3051 3049 3049 3048 3045 3043 3043 3043
3079 3075 3076 3074 3070 3068 3065 3063 3060 3056 3056 3054 3052 3051 3053 3055 3056 3058 3059 3060 3061 3061 3062 3062 3062 3061 3059 3058 3057 3057 3056 3055 3055 3055 3054 3054 3053 3053 3053 3053 3051 3051 3048 3048 3047 3046 3046
3078 3075 3074 3073 3072 3070 3067 3065 3063 3061 3056 3056 3054 3053 3054 3055 3056 3058 3059 3060 3061 3062 3062 3062 3062 3062 3062 3059 3058 3057 3056 3056 3055 3055 3054 3053 3053 3053 3052 3052 3054 3049 3047 3047 3048 3048 3049
3077 3075 3072 3070 3072 3071 3069 3067 3065 3063 3063 3059 3057 3056 3054 3055 3055 3056 3058 3059 3061 3061 3061 3061 3061 3061 3060 3060 3059 3058 3057 3056 3054 3054 3053 3053 3052 3052 3051 3050 3050 3047 3046 3046 3046 3047 3047
3076 3073 3069 3068 3067 3069 3068 3066 3065 3065 3062 3061 3060 3057 3057 3056 3057 3056 3057 3059 3060 3061 3061 3061 3061 3061 3060 3060 3059 3058 3057 3055 3054 3052 3051 3051 3050 3051 3049 3049 3047 3045 3045 3045 3045 3043 3042
3072 3070 3068 3065 3065 3064 3063 3062 3064 3063 3062 3061 3060 3059 3059 3057 3056 3055 3056 3058 3059 3060 3060 3060 3060 3060 3060 3058 3057 3057 3055 3054 3052 3050 3049 3048 3047 3046 3046 3046 3042 3041 3042 3043 3045 3044 3040
3068 3066 3063 3061 3061 3060 3059 3059 3058 3061 3060 3062 3061 3058 3059 3059 3057 3056 3056 3057 3058 3059 3059 3060 3061 3059 3059 3058 3056 3055 3053 3052 3049 3048 3046 3046 3045 3043 3043 3043 3040 3039 3040 3041 3040 3039 3039
3063 3063 3060 3057 3057 3057 3056 3055 3056 3058 3059 3059 3060 3059 3058 3057 3058 3057 3056 3056 3055 3056 3058 3058 3059 3058 3058 3056 3056 3054 3051 3049 3047 3045 3043 3042 3041 3041 3040 3035 3034 3035 3035 3036 3036 3036 3035
Wind_Speed
46 47 43 46 34 29 27 27 25 22 20 19 20 18 21 21 21 21 23 27 23 21 17 19 15 15 12 13 11 11 10 10 8 7 7 7 9 11 11 11 15 18 21 24 26 28 31
49 52 52 33 25 27 26 23 21 19 18 14 14 12 14 17 17 17 17 17 23 16 18 15 18 19 13 14 9 6 7 10 7 5 4 4 7 9 9 11 14 17 22 25 29 31 34
56 58 36 27 23 25 25 23 22 20 17 12 9 5 7 9 13 12 10 13 22 24 13 14 15 12 10 10 6 4 8 9 7 5 7 9 8 7 10 10 14 17 23 26 27 26 31
56 36 35 33 27 25 26 27 17 15 12 8 4 8 4 8 7 12 11 20 22 16 13 11 7 7 6 5 4 6 8 7 6 6 9 12 10 9 14 16 18 20 22 27 21 15 20
36 33 35 34 26 21 21 17 11 4 1 3 8 7 5 12 18 18 15 19 16 8 7 8 5 2 4 1 2 4 6 6 7 9 12 13 15 16 18 16 16 12 17 20 22 13 16
34 33 33 33 18 18 18 11 9 2 2 0 4 3 6 15 22 22 21 17 16 12 10 6 4 4 3 3 1 1 3 5 10 12 12 10 13 10 11 10 10 9 14 22 27 22 14
34 31 28 24 21 18 9 3 7 3 1 2 5 3 9 14 18 20 17 18 7 12 8 6 8 4 2 2 1 3 5 6 8 10 10 10 11 7 11 14 18 20 24 29 29 15 21
33 26 25 20 17 18 12 4 7 2 3 5 9 6 11 9 18 19 23 20 16 12 11 9 9 5 5 3 0 4 5 5 5 3 6 10 15 14 16 17 18 23 25 30 30 14 18
37 25 18 20 23 21 17 13 12 11 11 8 6 13 12 16 16 18 18 9 11 11 13 10 7 6 6 8 10 9 6 5 6 5 7 13 16 20 20 17 19 19 23 24 24 21 21
39 28 17 18 22 18 19 17 14 12 8 7 10 16 14 19 15 15 18 13 12 15 9 6 5 6 9 10 11 14 8 5 6 6 6 7 9 9 9 14 14 19 9 18 21 18 10
37 25 18 20 18 21 19 15 12 15 13 12 14 15 13 12 10 12 16 13 21 10 4 5 8 11 12 6 5 9 11 11 6 8 4 6 5 6 4 3 3 11 11 20 24 21 17
32 28 20 22 23 20 19 18 16 15 14 15 17 18 15 19 12 14 13 22 17 2 2 5 8 10 9 10 12 12 11 11 7 7 8 8 3 3 7 6 8 15 19 16 10 6 6
32 25 25 22 23 25 21 22 21 18 17 19 19 20 13 15 12 18 23 20 7 7 7 6 9 9 9 8 9 11 12 13 8 8 11 10 7 12 7 11 10 16 14 4 5 4 3
32 28 28 23 22 25 23 23 23 23 21 21 18 15 16 14 25 25 14 9 10 7 6 12 11 7 7 4 7 9 12 10 9 6 10 10 6 13 15 15 9 12 5 3 4 3 3
34 32 35 29 27 27 27 25 24 20 19 16 20 18 12 24 20 14 11 12 8 11 13 10 7 7 6 8 6 4 7 8 9 9 5 7 5 11 17 21 16 11 12 13 2 6 4
46 39 37 33 32 31 30 28 27 23 21 23 18 17 26 26 15 16 20 17 14 18 11 9 7 8 3 4 4 3 5 7 8 6 4 7 6 8 12 17 17 13 16 7 6 3 4
39 39 38 34 32 32 30 28 26 24 23 19 15 15 22 20 16 22 26 25 20 12 7 7 9 6 6 4 4 3 5 3 7 3 5 8 7 10 12 16 22 24 22 7 6 2 1
32 32 31 32 29 27 28 25 24 24 20 19 10 18 22 19 17 24 22 19 13 9 11 10 8 6 5 2 4 3 7 7 6 6 4 6 5 5 7 11 16 22 20 14 7 11 22
26 25 27 25 25 25 23 22 21 19 15 15 14 17 19 15 17 20 19 16 11 10 8 12 10 12 11 3 3 6 8 8 8 6 5 5 6 6 5 7 14 22 16 9 6 5 12
17 21 21 22 22 21 21 19 18 17 15 12 15 14 15 11 14 19 18 14 12 12 12 10 10 8 6 7 8 6 7 8 9 8 6 4 7 7 6 4 10 14 16 13 6 11 16
11 13 14 14 16 17 17 15 16 15 14 17 16 12 10 13 10 12 11 13 9 9 8 6 7 7 3 0 4 7 5 4 5 7 5 6 6 8 8 7 7 11 12 13 17 14 13
10 10 10 9 8 9 10 9 9 7 10 14 13 11 9 12 12 11 11 10 8 6 4 7 4 7 7 4 5 5 5 4 4 3 4 3 2 2 4 2 3 8 10 10 14 16 18
15 10 14 12 7 6 6 5 3 7 7 10 12 10 10 9 10 9 12 12 8 6 3 3 2 4 4 5 5 6 6 5 4 4 3 0 1 2 1 1 2 2 3 6 6 7 8
15 14 9 10 14 10 6 6 4 1 6 5 7 8 5 7 10 10 8 10 10 7 3 4 3 3 3 2 3 4 3 2 2 3 3 2 4 3 2 2 1 1 2 4 7 7 6
15 18 16 11 11 14 12 9 5 2 5 2 2 2 2 3 9 12 9 10 7 6 3 4 4 1 1 1 1 3 1 1 3 4 5 4 4 2 2 2 4 5 7 6 7 8 8
14 16 21 16 12 12 13 12 9 6 5 8 11 7 5 3 7 11 12 10 10 8 6 6 6 4 4 3 2 1 1 3 2 3 4 6 6 4 2 1 4 2 2 5 6 10 10
15 14 17 19 13 10 12 8 11 8 10 9 8 10 8 6 6 12 12 12 13 12 7 8 7 6 6 5 4 2 3 4 3 4 4 5 7 9 7 4 6 7 6 5 4 3 7
17 16 17 17 15 12 13 10 8 10 11 13 11 9 8 10 11 11 13 12 15 13 9 6 8 9 7 7 4 4 5 5 7 8 7 5 4 6 7 7 6 5 9 8 5 4 6
18 17 16 18 16 14 11 11 9 10 8 11 14 13 11 8 9 11 13 15 16 17 14 11 9 5 7 5 6 5 7 8 8 6 8 7 10 4 8 5 7 7 5 7 6 6 6
Wind_Direction
328 325 320 315 309 302 290 287 286 288 279 283 275 260 252 242 238 238 234 234 233 244 248 255 252 311 294 276 280 271 267 265 260 259 267 271 256 248 243 227 228 230 242 242 245 249 251
329 323 320 319 300 294 290 288 281 279 276 279 284 259 245 239 235 234 235 219 220 246 239 257 269 284 274 272 276 266 267 270 253 250 274 268 252 266 255 241 239 245 247 255 257 256 253
320 321 325 327 307 297 286 286 276 275 275 270 263 263 244 223 224 222 219 191 207 227 233 247 272 270 268 270 279 271 278 261 267 290 294 279 285 263 269 272 261 265 273 273 271 274 269
322 329 326 326 320 311 299 296 290 273 257 263 293 287 225 190 174 159 174 189 193 208 228 245 263 250 253 240 257 273 271 270 274 287 283 289 288 285 274 273 276 282 278 282 283 289 273
325 330 326 324 321 318 314 307 316 286 180 250 229 273 216 178 154 159 178 173 201 175 215 246 225 233 230 201 255 283 270 282 300 287 279 279 269 262 265 271 283 286 284 285 297 293 288
333 332 336 333 327 333 314 306 329 342 101 209 230 258 214 180 171 175 163 180 188 190 211 195 163 152 159 123 289 302 314 327 304 297 296 298 280 290 301 283 260 269 266 271 284 288 284
339 343 349 353 360 352 345 339 352 318 211 213 234 200 192 175 174 187 181 182 167 169 177 150 131 131 104 136 354 358 7 322 307 296 298 276 282 290 308 288 300 285 284 288 289 286 285
348 356 358 3 6 13 10 28 57 40 214 236 216 160 129 165 173 184 185 177 166 145 140 130 114 100 96 61 76 34 329 347 331 317 302 291 290 304 291 287 281 281 289 289 297 308 285
5 10 18 24 32 42 41 75 91 109 119 132 157 158 123 129 142 140 163 165 142 125 125 111 103 87 94 82 63 49 32 357 349 356 325 291 293 289 286 285 284 277 273 284 287 311 289
357 19 29 31 52 48 58 79 85 87 103 139 144 152 130 144 128 155 156 151 140 140 111 96 94 66 106 95 67 64 32 31 32 28 358 330 336 316 282 266 262 279 288 286 288 281 288
16 16 35 37 60 77 88 90 84 81 90 120 129 142 150 136 139 144 143 151 146 133 79 86 78 93 86 75 85 54 35 37 54 51 37 354 7 331 314 45 250 292 296 285 295 272 276
26 45 43 52 61 72 76 74 86 77 108 122 125 136 120 131 147 140 123 138 141 103 61 114 115 100 82 70 62 41 38 24 26 16 354 346 329 328 348 337 302 285 288 297 300 255 250
50 54 70 74 70 62 73 71 81 84 102 109 111 121 113 118 132 129 126 128 112 61 111 115 121 110 78 67 36 32 32 28 37 4 1 342 354 3 349 321 291 285 272 276 183 223 23
69 69 71 76 75 75 81 78 85 99 111 116 120 117 101 89 116 120 107 115 73 93 103 111 113 81 57 40 56 42 38 25 7 350 330 348 339 352 327 302 328 333 1 323 352 34 52
83 84 86 86 85 91 96 95 93 101 103 98 105 112 101 123 109 104 110 97 109 115 112 112 85 54 56 47 50 67 341 3 357 7 1 347 354 22 9 17 6 360 353 11 315 84 84
91 95 95 97 100 97 99 103 104 105 102 106 107 104 121 127 108 115 114 93 110 115 111 91 44 30 60 48 27 23 356 347 353 3 4 2 325 360 7 23 35 25 7 329 15 36 67
91 93 95 94 97 104 102 103 108 110 110 101 99 114 126 122 100 110 100 105 114 109 112 103 100 89 57 47 31 56 1 329 2 341 23 25 352 359 35 29 23 23 9 355 297 164 133
84 86 85 89 87 97 108 104 102 107 105 93 81 106 130 118 111 108 114 121 116 97 111 110 94 82 108 92 48 44 37 22 10 22 40 40 343 337 359 26 23 32 20 36 31 55 90
86 87 89 86 90 89 94 105 108 104 104 95 88 103 129 118 110 112 120 123 98 91 104 92 85 76 58 41 52 54 46 40 41 36 18 24 18 347 355 8 29 36 32 36 67 111 56
86 91 96 96 97 96 93 92 99 101 96 92 103 100 127 127 125 126 130 128 109 94 95 94 85 80 82 50 55 58 59 45 31 34 31 17 42 59 123 58 31 30 37 39 75 94 95
51 87 95 97 104 107 106 96 89 88 90 89 87 97 127 141 129 138 141 144 127 102 91 104 78 68 62 227 49 45 53 45 48 47 46 67 79 77 75 66 50 61 62 54 75 107 123
346 19 69 90 95 95 103 121 115 84 83 88 88 92 106 133 141 156 164 170 151 128 115 101 98 64 47 49 56 48 47 39 53 43 72 83 107 57 69 69 59 56 97 71 81 95 111
317 340 8 17 61 96 96 87 123 133 102 93 99 99 115 143 158 168 179 190 189 186 179 126 80 36 54 57 54 46 54 44 27 25 31 13 23 334 167 23 232 262 109 135 123 118 129
300 300 321 351 353 359 359 20 20 8 93 83 92 101 103 153 182 184 189 204 215 215 222 205 183 113 113 67 358 3 4 5 352 342 338 330 332 328 302 342 37 313 188 164 176 177 179
290 291 291 290 311 330 330 321 345 265 289 325 50 34 115 176 195 202 195 206 208 215 220 198 188 205 183 330 313 217 333 286 302 309 288 292 305 310 321 300 281 260 215 199 186 206 190
329 293 284 291 292 294 325 317 312 313 277 316 329 316 271 230 215 209 207 207 208 211 210 201 201 213 216 243 274 310 268 301 278 271 256 256 260 246 274 282 218 221 230 191 215 246 203
318 320 295 280 291 280 284 295 296 286 280 287 307 317 314 268 241 221 217 210 215 220 220 216 221 233 239 254 270 254 255 264 270 257 227 257 246 245 237 261 266 247 239 208 207 225 195
306 315 314 278 269 274 276 276 264 276 277 279 290 293 300 306 286 244 219 216 218 230 234 250 241 247 245 242 244 246 257 259 263 254 270 253 234 219 201 217 260 200 200 203 218 203 215
297 304 313 301 258 262 273 264 265 267 281 263 280 291 293 293 292 268 240 231 222 230 232 237 235 271 242 244 254 255 259 265 269 275 245 251 224 234 227 234 265 275 258 243 258 258 268